ELY5133 LLBG-LCLK

Flight info

Callsign ELY5133
Flight time 0h 41m
Altitude 22000
Route DAFNA W13 VELOX N131 EMEDA
Aircraft B738/M-SDE2E3FGHIJ1LORVWXY/LB1

Departure

Time 2026-05-07 21:11
Airport Ben Gurion International Airport (LLBG)

Arrival

Time 2026-05-07 21:52
Airport Larnaca International Airport (LCLK)
Time Latitude Longitude Altitude Speed Heading
2026-05-07 20:37 32.00370 34.87639 115 ft 0 kts 272°
2026-05-07 21:00 32.00370 34.87652 119 ft 4 kts 272°
2026-05-07 21:00 32.00369 34.87680 117 ft 4 kts 265°
2026-05-07 21:01 32.00377 34.87705 117 ft 4 kts 216°
2026-05-07 21:01 32.00401 34.87717 116 ft 4 kts 186°
2026-05-07 21:01 32.00428 34.87716 118 ft 4 kts 170°
2026-05-07 21:01 32.00436 34.87715 119 ft 1 kts 166°
2026-05-07 21:05 32.00433 34.87716 118 ft 1 kts 166°
2026-05-07 21:05 32.00414 34.87725 114 ft 6 kts 149°
2026-05-07 21:06 32.00402 34.87775 119 ft 7 kts 73°
2026-05-07 21:06 32.00438 34.87812 119 ft 7 kts 32°
2026-05-07 21:06 32.00492 34.87852 119 ft 13 kts 31°
2026-05-07 21:06 32.00570 34.87908 119 ft 13 kts 31°
2026-05-07 21:07 32.00669 34.87976 116 ft 22 kts 31°
2026-05-07 21:07 32.00818 34.88084 116 ft 24 kts 31°
2026-05-07 21:07 32.00957 34.88186 115 ft 23 kts 32°
2026-05-07 21:07 32.01090 34.88283 119 ft 22 kts 31°
2026-05-07 21:08 32.01220 34.88377 119 ft 22 kts 32°
2026-05-07 21:08 32.01334 34.88488 118 ft 21 kts 45°
2026-05-07 21:08 32.01420 34.88620 119 ft 20 kts 58°
2026-05-07 21:08 32.01480 34.88768 116 ft 20 kts 71°
2026-05-07 21:09 32.01509 34.88924 119 ft 19 kts 81°
2026-05-07 21:09 32.01533 34.89081 115 ft 20 kts 77°
2026-05-07 21:09 32.01565 34.89151 117 ft 9 kts 34°
2026-05-07 21:09 32.01647 34.89152 117 ft 15 kts 351°
2026-05-07 21:10 32.01740 34.89091 116 ft 17 kts 281°
2026-05-07 21:10 32.01711 34.88864 120 ft 65 kts 258°
2026-05-07 21:10 32.01563 34.87951 124 ft 157 kts 259°
2026-05-07 21:10 32.01329 34.86451 595 ft 197 kts 260°
2026-05-07 21:11 32.01089 34.84942 1996 ft 184 kts 264°
2026-05-07 21:11 32.00865 34.83482 3167 ft 182 kts 265°
2026-05-07 21:11 32.00454 34.79994 3794 ft 267 kts 265°
2026-05-07 21:12 32.00009 34.77744 4550 ft 283 kts 252°
2026-05-07 21:12 31.99457 34.75595 6054 ft 267 kts 259°
2026-05-07 21:12 31.99561 34.73414 7016 ft 273 kts 287°
2026-05-07 21:12 32.00226 34.71310 7681 ft 276 kts 291°
2026-05-07 21:13 32.00921 34.69238 7965 ft 278 kts 290°
2026-05-07 21:13 32.01601 34.67080 7994 ft 283 kts 289°
2026-05-07 21:13 32.02250 34.64975 7989 ft 280 kts 289°
2026-05-07 21:13 32.02746 34.62708 7974 ft 277 kts 273°
2026-05-07 21:14 32.02759 34.60452 7992 ft 274 kts 270°
2026-05-07 21:14 32.02807 34.58208 7990 ft 274 kts 273°
2026-05-07 21:14 32.02950 34.55982 8033 ft 270 kts 275°
2026-05-07 21:14 32.03285 34.53828 8027 ft 269 kts 293°
2026-05-07 21:15 32.04315 34.52066 8123 ft 264 kts 314°
2026-05-07 21:15 32.05803 34.50814 8143 ft 264 kts 332°
2026-05-07 21:15 32.07492 34.49899 8245 ft 275 kts 335°
2026-05-07 21:15 32.09293 34.48957 8878 ft 286 kts 334°
2026-05-07 21:16 32.11096 34.47951 9851 ft 287 kts 332°
2026-05-07 21:16 32.12899 34.46903 10643 ft 295 kts 331°
2026-05-07 21:16 32.14820 34.45777 10836 ft 323 kts 331°
2026-05-07 21:16 32.16867 34.44582 11373 ft 335 kts 332°
2026-05-07 21:17 32.18953 34.43375 12193 ft 337 kts 332°
2026-05-07 21:17 32.21073 34.42153 13008 ft 341 kts 332°
2026-05-07 21:17 32.23219 34.40918 13796 ft 345 kts 332°
2026-05-07 21:17 32.25387 34.39673 14562 ft 347 kts 332°
2026-05-07 21:18 32.27570 34.38419 15295 ft 351 kts 332°
2026-05-07 21:18 32.29774 34.37152 16027 ft 354 kts 332°
2026-05-07 21:18 32.31996 34.35876 16781 ft 356 kts 332°
2026-05-07 21:18 32.34234 34.34588 17519 ft 359 kts 332°
2026-05-07 21:19 32.36464 34.33306 18207 ft 363 kts 332°
2026-05-07 21:19 32.38635 34.32056 18799 ft 367 kts 332°
2026-05-07 21:19 32.40934 34.30732 19445 ft 369 kts 333°
2026-05-07 21:19 32.43251 34.29397 20104 ft 371 kts 333°
2026-05-07 21:20 32.45574 34.28058 20791 ft 371 kts 333°
2026-05-07 21:20 32.47881 34.26727 21596 ft 369 kts 333°
2026-05-07 21:20 32.49387 34.25859 21848 ft 368 kts 333°
2026-05-07 21:20 32.51649 34.24553 22121 ft 366 kts 333°
2026-05-07 21:21 32.53997 34.23325 22091 ft 369 kts 338°
2026-05-07 21:21 32.56442 34.22423 22093 ft 369 kts 345°
2026-05-07 21:21 32.58972 34.21932 22108 ft 369 kts 352°
2026-05-07 21:21 32.61531 34.21700 22101 ft 369 kts 354°
2026-05-07 21:22 32.64094 34.21547 22109 ft 369 kts 355°
2026-05-07 21:22 32.66658 34.21385 22102 ft 369 kts 354°
2026-05-07 21:22 32.69218 34.21188 22100 ft 369 kts 354°
2026-05-07 21:22 32.71785 34.20956 22107 ft 370 kts 353°
2026-05-07 21:23 32.74314 34.20702 22101 ft 370 kts 353°
2026-05-07 21:23 32.76882 34.20426 22109 ft 371 kts 352°
2026-05-07 21:23 32.79453 34.20141 22106 ft 371 kts 352°
2026-05-07 21:23 32.82025 34.19850 22099 ft 372 kts 352°
2026-05-07 21:24 32.84598 34.19556 22108 ft 372 kts 352°
2026-05-07 21:24 32.87173 34.19261 22108 ft 372 kts 352°
2026-05-07 21:24 32.89747 34.18966 22102 ft 372 kts 352°
2026-05-07 21:24 32.92319 34.18671 22100 ft 371 kts 352°
2026-05-07 21:25 32.94856 34.18380 22111 ft 371 kts 352°
2026-05-07 21:25 32.97424 34.18086 22114 ft 371 kts 352°
2026-05-07 21:25 32.99994 34.17791 22107 ft 371 kts 352°
2026-05-07 21:25 33.02561 34.17496 22106 ft 370 kts 352°
2026-05-07 21:26 33.05122 34.17202 22101 ft 370 kts 352°
2026-05-07 21:26 33.07687 34.16908 22114 ft 370 kts 352°
2026-05-07 21:26 33.10249 34.16613 22111 ft 370 kts 352°
2026-05-07 21:26 33.12809 34.16319 22102 ft 370 kts 352°
2026-05-07 21:27 33.15369 34.16024 22113 ft 370 kts 352°
2026-05-07 21:27 33.17928 34.15729 22110 ft 370 kts 352°
2026-05-07 21:27 33.20454 34.15438 22104 ft 370 kts 352°
2026-05-07 21:27 33.23014 34.15143 22118 ft 369 kts 352°
2026-05-07 21:28 33.25572 34.14848 22106 ft 370 kts 352°
2026-05-07 21:28 33.28132 34.14553 22105 ft 370 kts 352°
2026-05-07 21:28 33.30690 34.14257 22116 ft 369 kts 352°
2026-05-07 21:28 33.33250 34.13962 22106 ft 370 kts 352°
2026-05-07 21:29 33.35811 34.13665 22108 ft 370 kts 352°
2026-05-07 21:29 33.38371 34.13369 22111 ft 370 kts 352°
2026-05-07 21:29 33.40896 34.13077 22112 ft 370 kts 352°
2026-05-07 21:29 33.43456 34.12781 22110 ft 370 kts 352°
2026-05-07 21:30 33.46017 34.12484 22110 ft 370 kts 352°
2026-05-07 21:30 33.48580 34.12187 22109 ft 370 kts 352°
2026-05-07 21:30 33.51139 34.11890 22113 ft 370 kts 352°
2026-05-07 21:30 33.53700 34.11592 22114 ft 370 kts 352°
2026-05-07 21:31 33.56264 34.11295 22115 ft 370 kts 352°
2026-05-07 21:31 33.58822 34.10997 22114 ft 370 kts 352°
2026-05-07 21:31 33.61382 34.10699 22110 ft 370 kts 352°
2026-05-07 21:31 33.63906 34.10406 22111 ft 370 kts 352°
2026-05-07 21:32 33.66466 34.10108 22108 ft 370 kts 352°
2026-05-07 21:32 33.69026 34.09809 22108 ft 369 kts 352°
2026-05-07 21:32 33.71585 34.09511 22110 ft 369 kts 352°
2026-05-07 21:32 33.74141 34.09213 22112 ft 369 kts 352°
2026-05-07 21:33 33.76701 34.08914 22112 ft 369 kts 352°
2026-05-07 21:33 33.79255 34.08616 22113 ft 369 kts 352°
2026-05-07 21:33 33.81802 34.08252 22106 ft 368 kts 348°
2026-05-07 21:33 33.84298 34.07594 22114 ft 378 kts 343°
2026-05-07 21:34 33.86828 34.06653 22115 ft 380 kts 339°
2026-05-07 21:34 33.89298 34.05551 21902 ft 378 kts 337°
2026-05-07 21:34 33.91731 34.04404 21650 ft 373 kts 337°
2026-05-07 21:34 33.94138 34.03282 21396 ft 369 kts 338°
2026-05-07 21:35 33.96540 34.02197 21144 ft 369 kts 338°
2026-05-07 21:35 33.98952 34.01139 20895 ft 368 kts 339°
2026-05-07 21:35 34.01362 34.00104 20649 ft 368 kts 339°
2026-05-07 21:35 34.03769 33.99083 20262 ft 366 kts 339°
2026-05-07 21:36 34.06144 33.98082 19740 ft 365 kts 339°
2026-05-07 21:36 34.08539 33.97075 19183 ft 364 kts 339°
2026-05-07 21:36 34.10930 33.96070 18640 ft 363 kts 339°
2026-05-07 21:36 34.13317 33.95067 18000 ft 364 kts 339°
2026-05-07 21:37 34.15704 33.94062 17414 ft 362 kts 339°
2026-05-07 21:37 34.18081 33.93061 16830 ft 361 kts 340°
2026-05-07 21:37 34.20446 33.92064 16265 ft 360 kts 340°
2026-05-07 21:37 34.22808 33.91067 15707 ft 359 kts 340°
2026-05-07 21:38 34.25130 33.90087 15162 ft 358 kts 340°
2026-05-07 21:38 34.27484 33.89093 14586 ft 358 kts 340°
2026-05-07 21:38 34.29840 33.88098 14023 ft 359 kts 340°
2026-05-07 21:38 34.32193 33.87103 13396 ft 359 kts 340°
2026-05-07 21:39 34.34538 33.86111 12820 ft 353 kts 341°
2026-05-07 21:39 34.36819 33.85146 12258 ft 342 kts 341°
2026-05-07 21:39 34.39027 33.84210 11730 ft 331 kts 341°
2026-05-07 21:39 34.41178 33.83299 11231 ft 325 kts 341°
2026-05-07 21:40 34.43312 33.82394 10736 ft 326 kts 341°
2026-05-07 21:40 34.45416 33.81502 10605 ft 314 kts 341°
2026-05-07 21:40 34.47429 33.80647 10408 ft 306 kts 341°
2026-05-07 21:40 34.49400 33.79798 10255 ft 296 kts 340°
2026-05-07 21:41 34.51290 33.78955 10103 ft 282 kts 340°
2026-05-07 21:41 34.53092 33.78143 9803 ft 273 kts 340°
2026-05-07 21:41 34.54873 33.77343 9447 ft 271 kts 340°
2026-05-07 21:41 34.56637 33.76551 8995 ft 269 kts 341°
2026-05-07 21:42 34.58373 33.75773 8688 ft 265 kts 341°
2026-05-07 21:42 34.60104 33.74999 8354 ft 265 kts 341°
2026-05-07 21:42 34.61838 33.74223 8038 ft 265 kts 341°
2026-05-07 21:42 34.63571 33.73449 7713 ft 265 kts 341°
2026-05-07 21:43 34.65280 33.72689 7410 ft 265 kts 342°
2026-05-07 21:43 34.67014 33.71918 7094 ft 265 kts 342°
2026-05-07 21:43 34.68744 33.71148 6790 ft 265 kts 342°
2026-05-07 21:43 34.70478 33.70392 6474 ft 264 kts 346°
2026-05-07 21:44 34.72279 33.70295 6103 ft 260 kts 17°
2026-05-07 21:44 34.73851 33.71277 5839 ft 255 kts 40°
2026-05-07 21:44 34.75015 33.72888 5548 ft 253 kts 54°
2026-05-07 21:44 34.76031 33.74639 5222 ft 254 kts 52°
2026-05-07 21:45 34.77200 33.76200 4892 ft 254 kts 42°
2026-05-07 21:45 34.78596 33.77509 4583 ft 253 kts 34°
2026-05-07 21:45 34.80107 33.78607 4278 ft 253 kts 28°
2026-05-07 21:45 34.81702 33.79513 3970 ft 253 kts 22°
2026-05-07 21:46 34.83365 33.80202 3665 ft 253 kts 15°
2026-05-07 21:46 34.85075 33.80646 3449 ft 246 kts
2026-05-07 21:46 34.86702 33.80824 3375 ft 225 kts
2026-05-07 21:46 34.88208 33.80776 3232 ft 208 kts 356°
2026-05-07 21:47 34.89571 33.80577 3103 ft 193 kts 352°
2026-05-07 21:47 34.90839 33.80263 2986 ft 179 kts 347°
2026-05-07 21:47 34.91990 33.79857 2884 ft 165 kts 343°
2026-05-07 21:47 34.93031 33.79382 2809 ft 157 kts 339°
2026-05-07 21:48 34.94061 33.78825 2774 ft 166 kts 335°
2026-05-07 21:48 34.95081 33.78115 2681 ft 172 kts 327°
2026-05-07 21:48 34.96036 33.77232 2550 ft 172 kts 324°
2026-05-07 21:48 34.96734 33.76085 2340 ft 168 kts 290°
2026-05-07 21:49 34.96853 33.74723 2207 ft 164 kts 261°
2026-05-07 21:49 34.96373 33.73493 2066 ft 166 kts 232°
2026-05-07 21:49 34.95549 33.72503 1930 ft 167 kts 228°
2026-05-07 21:49 34.94753 33.71475 1710 ft 164 kts 230°
2026-05-07 21:50 34.93966 33.70480 1515 ft 162 kts 230°
2026-05-07 21:50 34.93183 33.69515 1295 ft 157 kts 229°
2026-05-07 21:50 34.92425 33.68586 1089 ft 153 kts 229°
2026-05-07 21:50 34.91679 33.67671 925 ft 153 kts 229°
2026-05-07 21:51 34.90937 33.66761 748 ft 152 kts 228°
2026-05-07 21:51 34.90167 33.65842 541 ft 156 kts 230°
2026-05-07 21:51 34.89375 33.64879 369 ft 162 kts 231°
2026-05-07 21:51 34.88592 33.63867 175 ft 163 kts 225°
2026-05-07 21:52 34.87834 33.62933 31 ft 145 kts 225°
2026-05-07 21:52 34.87226 33.62193 20 ft 95 kts 223°
2026-05-07 21:52 34.86994 33.61881 22 ft 28 kts 246°
2026-05-07 21:52 34.86947 33.61695 21 ft 18 kts 255°
2026-05-07 21:53 34.86915 33.61550 20 ft 18 kts 255°
2026-05-07 21:53 34.86870 33.61414 20 ft 17 kts 227°
2026-05-07 21:53 34.86788 33.61313 20 ft 16 kts 224°
2026-05-07 21:53 34.86700 33.61208 20 ft 20 kts 224°
2026-05-07 21:54 34.86641 33.61092 20 ft 14 kts 275°